Regional Weather Roundup
Issued by NWS Sterling, VA

Home | Current Version | Previous Version | Text Only | Print | Product List | Glossary On
Versions: 1 2 3 4 5 6 7 8 9 10 11 12 13 14 15 16 17 18 19 20 21 22 23 24 25 26 27
000
ASUS41 KLWX 250211
RWRLWX

REGIONAL WEATHER ROUNDUP
NATIONAL WEATHER SERVICE BALTIMORE MD/WASHINGTON DC
1000 PM EDT SAT JUN 24 2017

Note: "FAIR" indicates few or no clouds below 12,000 feet
with no significant weather and/or obstructions to visibility.
 TC=TEMPERATURE CELSIUS

 * =Non NWS site. Station does not report precipitation (e.g. rain,
    snow, etc.), thunder, or fog.

DCZ001-MDZ009-015-VAZ040>042-051-053>054-250300-
WASHINGTON METRO

CITY           SKY/WX    TMP DP  RH WIND       PRES   REMARKS
WASHINGTON NAT MOCLDY    81  59  47 SW3       29.95R
DULLES         MOCLDY    73  60  63 S5        29.96R
QUANTICO       PTCLDY    75  68  78 NW7       29.96R
COLLEGE PARK*  CLEAR     72  62  71 CALM      29.95R
LEESBURG*      PTCLDY   N/A N/A N/A W3        29.98R
MANASSAS*      PTCLDY    69  65  86 SE5       29.96R
GAITHERSBURG*  PTCLDY    70  59  68 CALM      29.98R

$$

MDZ006>007-011-014-250300-
BALTIMORE METRO

CITY           SKY/WX    TMP DP  RH WIND       PRES   REMARKS
BWI AIRPORT    MOCLDY    73  62  68 CALM      29.94R
MD SCIENCE CTR   N/A     82  59  45 MISG      29.94R
MARTIN STATE   PTCLDY    81  63  54 CALM      29.94R
ANNAPOLIS      PTCLDY    74  67  78 CALM      29.94R
FORT MEADE*    CLEAR     66  64  94 CALM      29.97R

$$

MDZ012-015-019>023-250300-
MARYLAND EASTERN SHORE

CITY           SKY/WX    TMP DP  RH WIND       PRES   REMARKS
OCEAN CITY     CLOUDY    78  72  81 SW5       29.96R
SALISBURY      MOCLDY    74  68  81 CALM      29.96R
BAY BRIDGE AP* PTCLDY    75  64  69 S3        29.94R
CAMBRIDGE*     CLEAR     72  66  83 CALM      29.95R
EASTON*        MOCLDY    75  63  66 CALM      29.98R

$$

MDZ017>025-250300-
SOUTHERN MARYLAND

CITY           SKY/WX    TMP DP  RH WIND       PRES   REMARKS
PATUXENT RIVER PTCLDY    76  63  64 S3        29.95R
ST INIGOES     MOCLDY    75  66  73 CALM      29.94R
LEONARDTOWN*   PTCLDY    70  63  78 CALM      29.97R

$$

MDZ003>005-250300-
NORTH CENTRAL MARYLAND

CITY           SKY/WX    TMP DP  RH WIND       PRES   REMARKS
FREDERICK*     CLEAR     72  63  73 S3        29.98
HAGERSTOWN APT CLEAR     77  60  55 SW6       29.96R
WESTMINSTER*   CLEAR     75  63  64 S3        29.97R

$$

MDZ501>502-250300-
WESTERN MARYLAND

CITY           SKY/WX    TMP DP  RH WIND       PRES   REMARKS
OAKLAND*       NOT AVBL
CUMBERLAND*    PTCLDY    77  55  47 W5        30.03R

$$

VAZ025>031-250300-
SHENANDOAH VALLEY

CITY           SKY/WX    TMP DP  RH WIND       PRES   REMARKS
WINCHESTER*    PTCLDY    72  54  53 W5        29.98R
FRONT ROYAL*   CLEAR     70  57  64 SW3       29.97R
LURAY*         CLEAR     70  63  78 CALM      29.99R
NEW MARKET*    CLEAR     64  58  79 CALM      29.99R
STAUNTON*      CLEAR     67  56  69 CALM      30.04R
WAYNESBORO*    PTCLDY    68  58  71 SW3       30.04R

$$

WVZ021-048>050-054>055-250300-
EASTERN WEST VIRGINIA PANHANDLE

CITY           SKY/WX    TMP DP  RH WIND       PRES   REMARKS
MARTINSBURG    MOCLDY    72  58  61 W7        29.96R
PETERSBURG*    CLOUDY    71  63  74 NW3       30.02R

$$

VAZ036>039-050-250300-
CENTRAL FOOTHILLS

CITY           SKY/WX    TMP DP  RH WIND       PRES   REMARKS
CHARLOTTESVILL CLOUDY    74  66  76 VRB3      29.99R
CULPEPER*      CLEAR     69  65  87 CALM      29.98R
ORANGE*        MOCLDY    68  64  88 CALM      29.97R
GORDONSVILLE*  CLOUDY    72  66  82 CALM      29.97R
WARRENTON*     CLEAR     68  61  78 CALM      29.96R

$$

VAZ055>057-250300-
NORTH AND CENTRAL PIEDMONT

CITY           SKY/WX    TMP DP  RH WIND       PRES   REMARKS
FREDERICKSBRG* PTCLDY    73  64  73 CALM      29.95R
STAFFORD*      PTCLDY    67  66  97 CALM      30.00R

$$

NCZ024-NYZ072-PAZ021-071-VAZ022-071-250300-
OTHER REGIONAL OBSERVATIONS

CITY           SKY/WX    TMP DP  RH WIND       PRES   REMARKS
NEW YORK CITY  PTCLDY    80  58  46 VRB3      29.90R
PHILADELPHIA   PTCLDY    78  60  53 SW7       29.92R
PITTSBURGH     MOCLDY    70  56  61 SW5       29.98R
ROANOKE        CLEAR     72  57  59 NW8       30.06R
RICHMOND       CLOUDY    80  70  71 CALM      29.96R
RALEIGH        LGT RAIN  72  72 100 CALM      30.01R

$$

ANZ530>537-250300-
MARINE OBSERVATIONS

STATION/POSITION TIME  TEMP    WIND        PRES
                       AIR SEA DIR/SP/G
                 (UTC) (F)     (DEG/KT/KT) (MB)
THOMAS PT LIGHT  0200   80 78  240/  6/  7   N/A
BALT KEY BRIDGE  0142   79     220/  4/  4 1013.3R
COVE POINT       0142   82     280/  2/  3 1014.6R
LEWISETTA        0142   80 81  160/  3/  4 1014.1R
SOLOMONS ISLAND  0142   77 76     CALM       N/A
PINEY POINT      0148          110/  4/  4   N/A

$$





USA.gov is the U.S. government's official web portal to all federal, state and local government web resources and services.